STARLINK-4422 (53639 NORAD) Tracking and Keplerian Element Data

This shows tracking and keplerian element data for the satellite.

Feedback or suggestion? Click here.




ElementValue
Catalog53639
NameSTARLINK-4422
Epoch Orbit1337
Epoch Day325.25001157
Epoch Year2022
RAAN231.1224
Inclination53.2162
Eccentricity0.0001275
Argument of Perigee63.5069
Mean Anonmoly337.8275
Mean Motion15.22856937
Decay Rate-0.01159061
L11 53639U 22104BD 22325.25001157 -.01159061 00000+0 -53012-1 0 9996
L22 53639 53.2162 231.1224 0001275 63.5069 337.8275 15.22856937 13373



Live tracking and technical data element details for STARLINK-4422 (NORAD 53639). STARLINK-4422 can be tracked NOW for your location showing map with azimuth and elevation plus other details from your city location.







IsCatalogInMostPopularTable: catalog: 53639, numindb: 8
Update: records affected: 1



GetName: 53639 STARLINK-4422

Hit Count: updated at: Tue, 29 Nov 2022 02:14:47 GMT